GW4005 Weather Reports


time (UTC)temp
F
wind
direction
speed
knots
gust
knots
rain 1hr
in
rain 24hr
in
rain mn
in
humidity
%
barometer
mb
20260508122515 47 216 3.5 8.7 0.00 0.40 0.00 79 1004.2
20260508122015 47 163 2.6 7.0 0.00 0.40 0.00 79 1004.2
20260508121535 47 195 1.7 10.4 0.00 0.40 0.00 79 1004.1
20260508121014 47 254 2.6 10.4 0.00 0.40 0.00 79 1004.1
20260508120516 47 214 3.5 8.7 0.00 0.40 0.00 79 1004.2
20260508120030 47 197 2.6 7.0 0.00 0.40 0.00 79 1004.2
20260508115514 47 198 2.6 8.7 0.00 0.43 0.00 79 1004.1
20260508115015 47 286 2.6 8.7 0.00 0.43 0.00 80 1004.3
20260508114535 47 182 2.6 7.8 0.00 0.43 0.00 80 1004.3
20260508114016 47 166 3.5 7.8 0.00 0.43 0.00 80 1004.3
20260508113532 47 195 3.5 9.6 0.00 0.43 0.00 80 1004.2
20260508113030 46 245 4.3 9.6 0.00 0.43 0.00 80 1004.2
20260508112514 47 194 4.3 10.4 0.00 0.43 0.00 81 1004.2
20260508112012 46 201 5.2 10.4 0.00 0.43 0.00 81 1004.3
20260508111530 46 176 5.2 10.4 0.00 0.43 0.00 81 1004.2
20260508111018 46 177 4.3 10.4 0.00 0.43 0.00 81 1004.1
20260508110515 46 195 3.5 10.4 0.00 0.43 0.00 80 1004.2
20260508110036 46 222 3.5 9.6 0.00 0.43 0.00 81 1004.0
20260508105515 46 235 3.5 9.6 0.00 0.43 0.00 81 1003.9
20260508105014 46 176 2.6 9.6 0.00 0.43 0.00 81 1003.9
20260508104529 46 192 1.7 8.7 0.00 0.43 0.00 81 1003.9
20260508104015 46 209 2.6 8.7 0.00 0.43 0.00 82 1003.8
20260508103515 46 233 2.6 8.7 0.00 0.43 0.00 81 1003.8
20260508103038 46 198 4.3 8.7 0.00 0.43 0.00 81 1003.7
20260508102515 46 262 1.7 9.6 0.00 0.43 0.00 82 1003.7
20260508102013 45 199 4.3 9.6 0.00 0.43 0.00 82 1003.7
20260508101538 45 189 4.3 9.6 0.00 0.43 0.00 82 1003.7
20260508101015 45 233 4.3 9.6 0.00 0.43 0.00 83 1003.6
20260508100514 45 184 2.6 8.7 0.00 0.43 0.00 84 1003.5
20260508100030 45 230 2.6 8.7 0.00 0.43 0.00 84 1003.4
20260508095514 44 163 1.7 7.0 0.00 0.44 0.00 85 1003.4
20260508095015 44 196 2.6 7.0 0.00 0.44 0.00 85 1003.4
20260508094542 44 175 2.6 7.8 0.00 0.44 0.00 85 1003.3
20260508094014 44 211 1.7 8.7 0.00 0.44 0.00 86 1003.2
20260508093515 43 193 3.5 8.7 0.00 0.44 0.00 87 1003.3
20260508093030 43 210 3.5 8.7 0.00 0.44 0.00 87 1003.2
20260508092517 43 211 2.6 7.0 0.00 0.44 0.00 87 1003.3
20260508092015 43 166 2.6 6.1 0.00 0.44 0.00 88 1003.2
20260508091545 43 161 1.7 7.8 0.00 0.44 0.00 88 1003.3
20260508091015 43 173 2.6 7.8 0.00 0.44 0.00 88 1003.3
20260508090515 43 207 1.7 6.1 0.00 0.44 0.00 88 1003.3
20260508090042 43 148 2.6 6.1 0.00 0.44 0.00 88 1003.3
20260508085517 43 187 1.7 6.1 0.00 0.45 0.00 89 1003.2
20260508085019 43 180 2.6 6.1 0.00 0.45 0.00 88 1003.2
20260508084530 43 192 1.7 6.1 0.00 0.45 0.00 89 1003.2
20260508084016 43 181 1.7 6.1 0.00 0.45 0.00 89 1003.3
20260508083515 42 164 2.6 6.1 0.00 0.45 0.00 89 1003.3
20260508083030 42 193 2.6 6.1 0.00 0.45 0.00 89 1003.2
20260508082517 42 188 2.6 6.1 0.00 0.45 0.00 88 1003.2
20260508082014 42 149 2.6 6.1 0.00 0.45 0.00 88 1003.2
20260508081539 43 152 2.6 6.1 0.00 0.45 0.00 88 1003.3
20260508081017 43 164 2.6 4.3 0.00 0.45 0.00 87 1003.3
20260508080514 43 164 1.7 6.1 0.00 0.45 0.00 87 1003.3
20260508080035 43 164 2.6 7.0 0.00 0.45 0.00 88 1003.2
20260508075513 44 156 2.6 7.0 0.00 0.45 0.00 88 1003.5
20260508075013 44 179 3.5 7.0 0.00 0.45 0.00 88 1003.5
20260508074532 43 204 2.6 6.1 0.00 0.45 0.00 88 1003.4
20260508074016 44 200 2.6 6.1 0.00 0.45 0.00 88 1003.4
20260508073513 43 196 2.6 6.1 0.00 0.45 0.00 88 1003.4
20260508073035 43 179 2.6 6.1 0.00 0.45 0.00 87 1003.4
20260508072516 44 179 1.7 6.1 0.00 0.45 0.00 88 1003.4
20260508072016 44 179 1.7 6.1 0.00 0.45 0.00 87 1003.3
20260508071536 44 179 1.7 5.2 0.00 0.45 0.00 87 1003.3
20260508071015 44 179 1.7 5.2 0.00 0.45 0.00 88 1003.4
20260508070517 44 179 2.6 6.1 0.00 0.45 0.00 88 1003.4
20260508070046 44 179 2.6 7.8 0.00 0.45 0.00 88 1003.4
20260508065517 44 160 4.3 9.6 0.00 0.45 0.00 89 1003.6
20260508065013 44 177 3.5 9.6 0.00 0.45 0.00 88 1003.6
20260508064535 44 161 3.5 9.6 0.00 0.45 0.00 88 1003.7
20260508064017 44 168 3.5 8.7 0.00 0.45 0.00 88 1003.6
20260508063513 44 179 4.3 8.7 0.00 0.45 0.00 88 1003.6
20260508063034 44 180 2.6 7.0 0.00 0.45 0.00 89 1003.5
20260508062515 44 195 3.5 6.1 0.00 0.45 0.00 89 1003.4
20260508062016 44 206 1.7 7.0 0.00 0.45 0.00 89 1003.4
20260508061534 44 196 2.6 7.0 0.00 0.45 0.00 89 1003.5
20260508061014 44 187 2.6 7.8 0.00 0.45 0.00 89 1003.5
20260508060513 43 167 3.5 7.8 0.00 0.45 0.00 89 1003.5
20260508060036 43 186 2.6 8.7 0.00 0.45 0.00 89 1003.5
20260508055516 44 176 2.6 8.7 0.00 0.47 0.00 88 1003.5
20260508055016 44 181 4.3 9.6 0.00 0.47 0.00 88 1003.5
20260508054541 44 177 3.5 9.6 0.00 0.47 0.00 88 1003.6
20260508054014 44 168 2.6 10.4 0.00 0.47 0.00 87 1003.5
20260508053517 44 211 3.5 10.4 0.00 0.47 0.00 86 1003.5
20260508053030 45 175 3.5 10.4 0.00 0.47 0.00 86 1003.5
20260508052515 45 187 4.3 9.6 0.00 0.47 0.00 85 1003.6
20260508052014 45 150 3.5 12.2 0.00 0.47 0.00 85 1003.8
20260508051533 46 183 5.2 12.2 0.00 0.47 0.00 84 1003.9
20260508051015 46 232 3.5 8.7 0.00 0.47 0.00 84 1003.9
20260508050513 46 168 1.7 8.7 0.00 0.47 0.00 84 1003.6
20260508050030 46 218 1.7 7.8 0.00 0.47 0.00 83 1003.6
20260508045515 46 186 2.6 7.8 0.00 0.51 0.00 84 1003.6
20260508045014 46 193 4.3 7.8 0.00 0.51 0.00 84 1003.8
20260508044530 46 210 3.5 7.8 0.00 0.51 0.00 84 1003.6
20260508044014 46 183 2.6 8.7 0.00 0.51 0.00 84 1003.6
20260508043514 46 201 2.6 9.6 0.00 0.51 0.00 84 1003.8
20260508043030 46 212 4.3 11.3 0.00 0.51 0.00 83 1003.9
20260508042515 46 190 5.2 11.3 0.00 0.51 0.00 83 1003.9
20260508042014 46 214 4.3 10.4 0.00 0.51 0.00 83 1003.9
20260508041529 47 154 4.3 9.6 0.00 0.51 0.00 82 1003.7
20260508041014 47 225 3.5 9.6 0.00 0.51 0.00 82 1003.6
20260508040514 47 210 3.5 9.6 0.00 0.51 0.00 83 1003.6
20260508040036 46 220 2.6 8.7 0.00 0.51 0.00 83 1003.7
20260508035516 46 191 2.6 8.7 0.00 0.51 0.00 83 1003.7
20260508035015 46 177 2.6 8.7 0.00 0.51 0.00 83 1003.6
20260508034538 46 183 3.5 8.7 0.00 0.51 0.00 83 1003.6
20260508034014 46 205 2.6 7.8 0.00 0.51 0.00 83 1003.6
20260508033514 46 181 2.6 7.8 0.00 0.51 0.00 82 1003.4
20260508033036 46 192 4.3 8.7 0.00 0.51 0.00 82 1003.4
20260508032515 46 195 3.5 8.7 0.00 0.51 0.00 82 1003.4
20260508032015 46 179 0.9 5.2 0.00 0.51 0.00 82 1003.2
20260508031536 46 196 1.7 5.2 0.00 0.51 0.00 82 1003.2
20260508031013 46 180 0.9 3.5 0.00 0.51 0.00 81 1003.3
20260508030515 46 0 0.0 3.5 0.00 0.51 0.00 81 1003.4
20260508030030 46 0 1.7 5.2 0.00 0.51 0.00 80 1003.5
20260508025516 46 179 2.6 5.2 0.00 0.51 0.51 80 1003.5
20260508025014 46 164 2.6 6.1 0.00 0.51 0.51 80 1003.5
20260508024536 46 157 2.6 7.0 0.00 0.51 0.51 80 1003.6
20260508024015 46 144 3.5 7.8 0.00 0.51 0.51 79 1003.7
20260508023515 46 148 2.6 7.8 0.00 0.51 0.51 79 1003.7
20260508023036 47 152 3.5 7.0 0.00 0.51 0.51 78 1003.7
20260508022514 47 189 2.6 7.0 0.00 0.51 0.51 77 1003.7
20260508022019 47 151 3.5 7.0 0.00 0.51 0.51 77 1003.8
20260508021535 48 152 2.6 7.0 0.00 0.51 0.51 76 1003.8
20260508021018 48 204 2.6 7.8 0.00 0.51 0.51 76 1003.8
20260508020517 48 191 2.6 9.6 0.00 0.51 0.51 76 1003.7
20260508020033 48 171 2.6 9.6 0.00 0.51 0.51 76 1003.7
20260508015517 48 214 3.5 7.8 0.00 0.51 0.51 76 1003.7
20260508015015 48 196 2.6 7.8 0.00 0.51 0.51 76 1003.7
20260508014532 47 198 3.5 9.6 0.00 0.51 0.51 77 1003.7
20260508014014 47 163 4.3 9.6 0.00 0.51 0.51 77 1003.8
20260508013519 47 203 3.5 8.7 0.00 0.51 0.51 78 1003.7
20260508013035 47 161 3.5 8.7 0.00 0.51 0.51 79 1003.8
20260508012518 46 176 2.6 7.8 0.00 0.51 0.51 81 1003.7
20260508012019 46 154 3.5 7.8 0.00 0.51 0.51 82 1003.6
20260508011530 46 226 2.6 7.0 0.00 0.51 0.51 84 1003.6
20260508011017 45 166 3.5 7.0 0.00 0.51 0.51 85 1003.6
20260508010518 45 212 1.7 7.8 0.00 0.51 0.51 87 1003.7
20260508010036 45 168 2.6 7.8 0.00 0.51 0.51 87 1003.6
20260508005517 45 207 1.7 7.8 0.00 0.51 0.51 88 1003.6
20260508005018 45 179 2.6 7.8 0.00 0.51 0.51 88 1003.6
20260508004534 45 170 4.3 7.8 0.00 0.51 0.51 88 1003.6
20260508004016 45 150 3.5 7.8 0.00 0.51 0.51 88 1003.5
20260508003517 45 165 3.5 7.8 0.00 0.51 0.51 88 1003.6
20260508003033 45 151 3.5 7.8 0.00 0.51 0.51 88 1003.7
20260508002515 45 156 3.5 7.8 0.00 0.51 0.51 88 1003.6
20260508002017 45 182 3.5 7.0 0.00 0.51 0.51 88 1003.5
20260508001547 45 195 2.6 6.1 0.00 0.51 0.51 88 1003.7
20260508001018 45 147 1.7 6.1 0.00 0.51 0.51 89 1003.6
20260508000518 44 173 1.7 6.1 0.00 0.51 0.51 89 1003.6
20260508000035 44 144 2.6 7.0 0.00 0.51 0.51 89 1003.6
20260507235521 44 162 2.6 7.0 0.00 0.51 0.51 89 1003.6
20260507235017 44 175 1.7 9.6 0.00 0.51 0.51 89 1003.5
20260507234534 44 152 3.5 9.6 0.00 0.51 0.51 89 1003.5
20260507234017 44 164 3.5 8.7 0.00 0.51 0.51 89 1003.6
20260507233514 44 176 2.6 7.8 0.00 0.51 0.51 89 1003.6
20260507233034 44 200 3.5 7.8 0.00 0.51 0.51 89 1003.5
20260507232516 45 181 3.5 8.7 0.00 0.51 0.51 89 1003.5
20260507232017 45 183 2.6 8.7 0.00 0.51 0.51 89 1003.5
20260507231531 45 173 3.5 13.0 0.00 0.51 0.51 89 1003.3
20260507231013 45 214 3.5 13.0 0.00 0.51 0.51 89 1003.0
20260507230514 45 163 5.2 9.6 0.00 0.51 0.51 89 1003.3
20260507230036 45 150 3.5 10.4 0.00 0.51 0.51 88 1003.3
20260507225513 45 214 4.3 11.3 0.00 0.51 0.51 88 1003.3
20260507225017 46 199 4.3 11.3 0.00 0.51 0.51 87 1003.3
20260507224535 46 209 2.6 9.6 0.00 0.51 0.51 87 1003.2
20260507224013 46 190 3.5 10.4 0.00 0.51 0.51 86 1003.2
20260507223515 47 189 3.5 10.4 0.00 0.51 0.51 86 1003.2
20260507223031 47 210 4.3 10.4 0.00 0.51 0.51 85 1003.1
20260507222516 47 239 5.2 13.9 0.00 0.51 0.51 85 1003.1
20260507222016 48 160 6.1 13.9 0.00 0.51 0.51 84 1003.1
20260507221533 48 191 5.2 11.3 0.00 0.51 0.51 83 1003.1
20260507221016 48 180 3.5 9.6 0.00 0.51 0.51 82 1003.1
20260507220513 48 183 4.3 10.4 0.00 0.51 0.51 81 1003.1
20260507220033 49 201 5.2 10.4 0.00 0.51 0.51 81 1003.0
20260507215515 49 181 3.5 10.4 0.00 0.51 0.51 80 1002.9
20260507215015 50 148 3.5 10.4 0.00 0.51 0.51 79 1003.0
20260507214530 50 195 4.3 10.4 0.00 0.51 0.51 79 1002.9
20260507214013 50 188 3.5 10.4 0.00 0.51 0.51 79 1002.8
20260507213514 50 214 1.7 10.4 0.00 0.51 0.51 80 1002.9
20260507213040 50 213 6.1 10.4 0.00 0.51 0.51 80 1002.8
20260507212516 50 193 4.3 12.2 0.00 0.51 0.51 80 1002.8
20260507212017 50 175 4.3 12.2 0.00 0.51 0.51 80 1002.8
20260507211543 50 146 3.5 11.3 0.00 0.51 0.51 81 1002.8
20260507211016 50 177 5.2 13.0 0.00 0.51 0.51 80 1002.8
20260507210514 50 195 6.1 13.0 0.00 0.51 0.51 80 1002.7
20260507210035 51 189 4.3 13.0 0.00 0.51 0.51 79 1002.6
20260507205513 51 196 6.1 13.0 0.00 0.51 0.51 79 1002.7
20260507205014 52 185 4.3 9.6 0.00 0.51 0.51 78 1002.6
20260507204533 52 198 3.5 12.2 0.00 0.51 0.51 77 1002.6
20260507204013 53 181 4.3 12.2 0.00 0.51 0.51 77 1002.4
20260507203518 53 199 3.5 12.2 0.00 0.51 0.51 77 1002.4
20260507203031 52 208 4.3 14.8 0.00 0.51 0.51 79 1002.4
20260507202515 52 155 5.2 14.8 0.00 0.51 0.51 80 1002.5
20260507202014 52 163 6.1 14.8 0.00 0.51 0.51 82 1002.5
20260507201536 52 191 6.1 12.2 0.00 0.51 0.51 84 1002.5
20260507201016 51 191 6.1 13.9 0.00 0.51 0.51 85 1002.4
20260507200515 51 191 5.2 14.8 0.00 0.51 0.51 86 1002.6
20260507200037 51 201 6.1 14.8 0.00 0.51 0.51 87 1002.6
20260507195517 50 161 7.0 14.8 0.00 0.51 0.51 87 1002.7
20260507195015 50 198 5.2 13.0 0.00 0.51 0.51 88 1002.7
20260507194532 50 180 5.2 13.0 0.00 0.51 0.51 88 1002.6
20260507194012 50 201 7.0 13.0 0.00 0.51 0.51 88 1002.7
20260507193512 50 148 5.2 14.8 0.00 0.51 0.51 90 1002.7
20260507193038 50 160 5.2 14.8 0.00 0.51 0.51 90 1002.7
20260507192516 50 204 7.0 14.8 0.00 0.51 0.51 90 1002.7
20260507192013 50 185 6.1 12.2 0.00 0.51 0.51 90 1002.8
20260507191531 50 187 3.5 11.3 0.00 0.51 0.51 90 1002.7
20260507191013 50 181 6.1 11.3 0.00 0.51 0.51 90 1002.7
20260507190513 51 192 5.2 11.3 0.00 0.51 0.51 91 1002.7
20260507190032 51 195 6.1 12.2 0.00 0.51 0.51 91 1002.6
20260507185514 51 161 5.2 12.2 0.00 0.51 0.51 91 1002.6
20260507185017 52 190 5.2 12.2 0.00 0.51 0.51 93 1002.5
20260507184533 52 212 4.3 12.2 0.00 0.51 0.51 94 1002.5
20260507184016 51 218 3.5 8.7 0.00 0.51 0.51 94 1002.5
20260507183515 51 206 2.6 10.4 0.00 0.51 0.51 94 1002.5
20260507183034 51 208 3.5 10.4 0.00 0.51 0.51 94 1002.5
20260507182513 51 160 4.3 10.4 0.00 0.51 0.51 95 1002.8
20260507182013 50 198 5.2 10.4 0.00 0.51 0.51 96 1002.9
20260507181531 50 161 4.3 11.3 0.00 0.51 0.51 96 1002.9
20260507181014 49 191 5.2 11.3 0.00 0.51 0.51 95 1002.8
20260507180517 49 216 4.3 9.6 0.00 0.51 0.51 95 1002.8
20260507180045 49 211 3.5 10.4 0.01 0.51 0.51 95 1002.9
20260507175515 49 171 4.3 10.4 0.01 0.51 0.51 96 1002.9
20260507175015 48 173 5.2 13.0 0.01 0.51 0.51 95 1002.9
20260507174533 49 171 3.5 13.0 0.01 0.51 0.51 95 1002.9
20260507174015 49 236 6.1 13.0 0.01 0.51 0.51 96 1002.9
20260507173519 49 201 5.2 12.2 0.01 0.51 0.51 95 1002.9
20260507173036 49 160 3.5 12.2 0.01 0.51 0.51 96 1003.0
20260507172516 49 217 6.1 12.2 0.01 0.51 0.51 96 1003.1
20260507172015 48 223 5.2 11.3 0.01 0.51 0.51 96 1003.2
20260507171529 47 223 5.2 12.2 0.01 0.51 0.51 96 1003.2
20260507171015 46 198 6.1 12.2 0.01 0.51 0.51 96 1003.1
20260507170513 46 229 3.5 13.9 0.01 0.51 0.51 96 1002.5
20260507170045 46 210 3.5 13.9 0.00 0.50 0.50 96 1002.7
20260507165513 46 169 4.3 13.9 0.00 0.50 0.50 95 1002.9
20260507165012 46 195 6.1 11.3 0.00 0.50 0.50 96 1003.3
20260507164531 46 196 3.5 11.3 0.00 0.50 0.50 96 1003.1
20260507164015 45 173 4.3 13.0 0.00 0.50 0.50 96 1003.0
20260507163514 45 206 6.1 14.8 0.01 0.50 0.50 96 1003.5
20260507163030 44 185 5.2 14.8 0.01 0.50 0.50 96 1003.6
20260507162513 44 179 7.0 15.6 0.01 0.50 0.50 96 1003.7
20260507162014 44 187 6.1 15.6 0.01 0.50 0.50 95 1003.9
20260507161530 44 212 6.1 15.6 0.01 0.50 0.50 95 1003.6
20260507161016 44 188 5.2 13.9 0.02 0.50 0.50 95 1003.2
20260507160516 45 195 6.1 11.3 0.03 0.50 0.50 95 1003.1
20260507160032 45 195 4.3 11.3 0.04 0.50 0.50 95 1003.0
20260507155513 45 252 2.6 7.8 0.05 0.50 0.50 95 1002.7
20260507155012 45 220 2.6 7.8 0.06 0.50 0.50 95 1003.3
20260507154532 45 200 3.5 11.3 0.07 0.50 0.50 95 1003.0
20260507154019 46 181 4.3 13.0 0.08 0.50 0.50 95 1003.7
20260507153514 46 211 4.3 13.0 0.08 0.49 0.49 95 1003.9
20260507153031 46 202 6.1 11.3 0.09 0.49 0.49 95 1003.6
20260507152515 46 220 3.5 10.4 0.10 0.49 0.49 96 1003.5
20260507152015 45 173 6.1 10.4 0.11 0.49 0.49 95 1002.7
20260507151533 45 197 4.3 12.2 0.11 0.48 0.48 95 1003.9
20260507151018 45 139 3.5 12.2 0.13 0.48 0.48 95 1003.9
20260507150516 45 158 6.1 12.2 0.13 0.47 0.47 95 1003.9
20260507150030 45 179 2.6 10.4 0.14 0.46 0.46 95 1003.9
20260507145515 45 206 3.5 10.4 0.15 0.45 0.45 95 1003.7
20260507145016 45 236 3.5 10.4 0.16 0.44 0.44 95 1003.6
20260507144530 45 191 2.6 9.6 0.17 0.43 0.43 95 1003.7
20260507144014 45 196 4.3 9.6 0.16 0.41 0.41 95 1003.6
20260507143513 46 195 3.5 7.0 0.17 0.41 0.41 95 1003.5
20260507143031 46 195 3.5 7.0 0.18 0.40 0.40 95 1003.4
20260507142518 46 180 3.5 7.8 0.18 0.39 0.39 94 1003.6
20260507142015 46 192 2.6 7.8 0.19 0.38 0.38 94 1003.7
20260507141529 47 263 2.6 7.0 0.19 0.37 0.37 94 1003.6
20260507141015 48 188 2.6 7.0 0.18 0.35 0.35 94 1004.0
20260507140516 49 245 1.7 4.3 0.18 0.34 0.34 95 1003.9
20260507140036 49 203 1.7 5.2 0.18 0.32 0.32 95 1003.8
20260507135514 49 221 1.7 9.6 0.18 0.30 0.30 95 1004.0
20260507135016 49 258 2.6 9.6 0.17 0.28 0.28 94 1003.8
20260507134530 51 279 4.3 9.6 0.15 0.26 0.26 96 1003.7
20260507134014 50 210 2.6 7.0 0.14 0.25 0.25 96 1003.3
20260507133513 48 131 3.5 7.0 0.12 0.23 0.23 96 1003.5
20260507133037 47 126 3.5 12.2 0.11 0.22 0.22 96 1003.9
20260507132512 46 123 4.3 13.0 0.09 0.20 0.20 95 1004.2
20260507132014 46 167 5.2 13.0 0.08 0.19 0.19 95 1004.6
20260507131538 46 206 4.3 12.2 0.07 0.18 0.18 95 1004.8
20260507131014 46 198 4.3 13.9 0.06 0.17 0.17 94 1004.8
20260507130517 46 195 6.1 13.9 0.04 0.15 0.15 94 1005.0
20260507130036 46 149 4.3 12.2 0.02 0.13 0.13 94 1005.0
20260507125515 46 216 5.2 12.2 0.01 0.12 0.12 94 1005.0
20260507125014 46 202 5.2 12.2 0.00 0.11 0.11 94 1004.8
20260507124532 46 141 3.5 11.3 0.00 0.11 0.11 94 1004.7
20260507124016 46 152 3.5 10.4 0.00 0.11 0.11 94 1004.7
20260507123514 46 241 4.3 13.0 0.00 0.11 0.11 94 1004.7
20260507123034 46 197 3.5 13.0 0.01 0.11 0.11 94 1004.6